,,,PA_Meas_PMT16A,,PR_Meas_QMR101_102,,RH_Meas_QMH101,,SR_Meas_QMS101,,TA_Meas_QMH101,,GenWind,,GenWind,
date,time,status,PA,status,PR,status,RH,status,SR,status,TA,status,DirAvg,status,SpdAvg,
2009-03-24, 00:00:04,VALID,1005.08,VALID,0,VALID,85.8402,VALID,0.100563,VALID,25.9408,VALID,355,VALID,0.730469,
2009-03-24, 00:01:04,VALID,1005.06,VALID,0,VALID,85.8631,VALID,0,VALID,25.9408,VALID,341,VALID,0.226563,
2009-03-24, 00:02:04,VALID,1005.04,VALID,0,VALID,85.7944,VALID,0,VALID,25.9602,VALID,334,VALID,0.413281,
2009-03-24, 00:03:04,VALID,1004.99,VALID,0,VALID,85.741,VALID,0.100563,VALID,25.9602,VALID,348,VALID,0.414063,
2009-03-24, 00:04:04,VALID,1004.98,VALID,0,VALID,85.741,VALID,0,VALID,25.9583,VALID,349,VALID,0.388281,
2009-03-24, 00:05:04,VALID,1004.97,VALID,0,VALID,85.7486,VALID,0.100563,VALID,25.9797,VALID,355,VALID,0.227734,
2009-03-24, 00:06:04,VALID,1004.97,VALID,0,VALID,85.7639,VALID,0,VALID,25.9992,VALID,355,VALID,0,
2009-03-24, 00:07:04,VALID,1004.95,VALID,0,VALID,85.7181,VALID,0.100563,VALID,25.9992,VALID,354,VALID,0.335938,
2009-03-24, 00:08:04,VALID,1004.93,VALID,0,VALID,85.6723,VALID,0.100563,VALID,25.9972,VALID,342,VALID,0.238281,
2009-03-24, 00:09:04,VALID,1004.91,VALID,0,VALID,85.6037,VALID,0.100563,VALID,25.9972,VALID,347,VALID,0.584375,
2009-03-24, 00:10:04,VALID,1004.89,VALID,0,VALID,85.5274,VALID,0.100563,VALID,26.0187,VALID,336,VALID,0.186719,
2009-03-24, 00:11:04,VALID,1004.89,VALID,0,VALID,85.5579,VALID,0,VALID,26.0206,VALID,280,VALID,0.3,
2009-03-24, 00:12:04,VALID,1004.87,VALID,0,VALID,85.4816,VALID,0,VALID,26.0206,VALID,7,VALID,0.646094,
2009-03-24, 00:13:04,VALID,1004.9,VALID,0,VALID,85.4282,VALID,0,VALID,26.0616,VALID,347,VALID,0.684766,
2009-03-24, 00:14:04,VALID,1004.86,VALID,0,VALID,85.3901,VALID,0,VALID,26.0401,VALID,348,VALID,0.634375,
2009-03-24, 00:15:04,VALID,1004.85,VALID,0,VALID,85.4282,VALID,0,VALID,26.0596,VALID,348,VALID,0.150391,
2009-03-24, 00:16:04,VALID,1004.84,VALID,0,VALID,85.4511,VALID,0,VALID,26.0596,VALID,348,VALID,0.0339844,
2009-03-24, 00:17:04,VALID,1004.85,VALID,0,VALID,85.3672,VALID,0,VALID,26.0596,VALID,287,VALID,0.552344,
2009-03-24, 00:18:04,VALID,1004.82,VALID,0,VALID,85.2527,VALID,0,VALID,26.0401,VALID,290,VALID,0.485938,
2009-03-24, 00:19:04,VALID,1004.81,VALID,0,VALID,85.2299,VALID,0,VALID,26.081,VALID,289,VALID,0.183203,
2009-03-24, 00:20:04,VALID,1004.81,VALID,0,VALID,85.1612,VALID,0,VALID,26.0791,VALID,287,VALID,0.794141,
2009-03-24, 00:21:04,VALID,1004.82,VALID,0,VALID,85.2146,VALID,0,VALID,26.0985,VALID,287,VALID,0.269922,
2009-03-24, 00:22:04,VALID,1004.83,VALID,0,VALID,85.1765,VALID,0,VALID,26.0771,VALID,293,VALID,0.244531,
2009-03-24, 00:23:04,VALID,1004.8,VALID,0,VALID,85.1078,VALID,0,VALID,26.118,VALID,266,VALID,0.256641,
2009-03-24, 00:24:04,VALID,1004.78,VALID,0,VALID,85.0925,VALID,0,VALID,26.118,VALID,331,VALID,0.463672,
2009-03-24, 00:25:04,VALID,1004.78,VALID,0,VALID,84.9857,VALID,0,VALID,26.118,VALID,316,VALID,0.644531,
2009-03-24, 00:26:04,VALID,1004.75,VALID,0,VALID,85.001,VALID,0,VALID,26.157,VALID,342,VALID,0.365625,
2009-03-24, 00:27:04,VALID,1004.71,VALID,0,VALID,84.8637,VALID,0,VALID,26.157,VALID,342,VALID,0.401172,
2009-03-24, 00:28:04,VALID,1004.72,VALID,0,VALID,84.8789,VALID,0,VALID,26.157,VALID,316,VALID,0.219531,
2009-03-24, 00:29:04,VALID,1004.67,VALID,0,VALID,84.7492,VALID,0,VALID,26.1765,VALID,281,VALID,0.267969,
2009-03-24, 00:30:04,VALID,1004.67,VALID,0,VALID,84.7874,VALID,0,VALID,26.1765,VALID,283,VALID,0.280469,
2009-03-24, 00:31:04,VALID,1004.66,VALID,0,VALID,84.6806,VALID,0,VALID,26.1979,VALID,350,VALID,0.673047,
2009-03-24, 00:32:04,VALID,1004.65,VALID,0,VALID,84.8637,VALID,0,VALID,26.1765,VALID,297,VALID,0.462891,
2009-03-24, 00:33:04,VALID,1004.64,VALID,0,VALID,84.7874,VALID,0,VALID,26.1355,VALID,324,VALID,0.319141,
2009-03-24, 00:34:04,VALID,1004.66,VALID,0,VALID,84.8255,VALID,0,VALID,26.1375,VALID,305,VALID,0.356641,
2009-03-24, 00:35:04,VALID,1004.64,VALID,0,VALID,84.8255,VALID,0,VALID,26.1375,VALID,325,VALID,0.0582031,
2009-03-24, 00:36:04,VALID,1004.61,VALID,0,VALID,84.7874,VALID,0,VALID,26.1375,VALID,312,VALID,0.227344,
2009-03-24, 00:37:04,VALID,1004.58,VALID,0,VALID,84.8103,VALID,0,VALID,26.1375,VALID,312,VALID,0.128906,
2009-03-24, 00:38:04,VALID,1004.6,VALID,0,VALID,84.8713,VALID,0,VALID,26.1375,VALID,312,VALID,0.103125,
2009-03-24, 00:39:04,VALID,1004.58,VALID,0,VALID,84.7797,VALID,0,VALID,26.118,VALID,352,VALID,0.605469,
2009-03-24, 00:40:04,VALID,1004.56,VALID,0,VALID,84.7874,VALID,0,VALID,26.118,VALID,354,VALID,0.669531,
2009-03-24, 00:41:04,VALID,1004.55,VALID,0,VALID,84.9171,VALID,0,VALID,26.118,VALID,356,VALID,0.619922,
2009-03-24, 00:42:04,VALID,1004.56,VALID,0,VALID,84.9247,VALID,0,VALID,26.0791,VALID,355,VALID,0.433594,
2009-03-24, 00:43:04,VALID,1004.54,VALID,0,VALID,84.94,VALID,0,VALID,26.0791,VALID,355,VALID,0.803906,
2009-03-24, 00:44:04,VALID,1004.51,VALID,0,VALID,85.001,VALID,0,VALID,26.0596,VALID,358,VALID,0.769141,
2009-03-24, 00:45:04,VALID,1004.51,VALID,0,VALID,85.0696,VALID,0,VALID,26.0187,VALID,350,VALID,0.632422,
2009-03-24, 00:46:04,VALID,1004.53,VALID,0,VALID,85.1154,VALID,0,VALID,26.0401,VALID,352,VALID,0.538281,
2009-03-24, 00:47:04,VALID,1004.53,VALID,0,VALID,85.1917,VALID,0,VALID,26.0206,VALID,347,VALID,0.564453,
2009-03-24, 00:48:04,VALID,1004.54,VALID,0,VALID,85.268,VALID,0,VALID,26.0012,VALID,347,VALID,0.853516,
2009-03-24, 00:49:04,VALID,1004.55,VALID,0,VALID,85.3214,VALID,0,VALID,25.9602,VALID,346,VALID,0.686328,
2009-03-24, 00:50:04,VALID,1004.54,VALID,0,VALID,85.5045,VALID,0,VALID,25.9817,VALID,350,VALID,0.854688,
2009-03-24, 00:51:04,VALID,1004.55,VALID,0,VALID,85.4969,VALID,0,VALID,25.9427,VALID,354,VALID,0.600391,
2009-03-24, 00:52:04,VALID,1004.54,VALID,0,VALID,85.5732,VALID,0,VALID,25.9232,VALID,352,VALID,0.655859,
2009-03-24, 00:53:04,VALID,1004.51,VALID,0,VALID,85.6189,VALID,0,VALID,25.9232,VALID,343,VALID,0.636328,
2009-03-24, 00:54:04,VALID,1004.52,VALID,0,VALID,85.802,VALID,0,VALID,25.9038,VALID,339,VALID,0.195703,
2009-03-24, 00:55:04,VALID,1004.52,VALID,0,VALID,85.802,VALID,0,VALID,25.8843,VALID,339,VALID,0.374609,
2009-03-24, 00:56:04,VALID,1004.51,VALID,0,VALID,85.9165,VALID,0,VALID,25.8648,VALID,340,VALID,0.417188,
2009-03-24, 00:57:04,VALID,1004.5,VALID,0,VALID,85.9622,VALID,0,VALID,25.8453,VALID,343,VALID,0.505469,
2009-03-24, 00:58:04,VALID,1004.5,VALID,0,VALID,86.1453,VALID,0,VALID,25.8259,VALID,343,VALID,0.313672,
2009-03-24, 00:59:04,VALID,1004.47,VALID,0,VALID,86.1301,VALID,0,VALID,25.8064,VALID,342,VALID,0.367969,
2009-03-24, 01:00:04,VALID,1004.45,VALID,0,VALID,86.2292,VALID,0,VALID,25.7869,VALID,336,VALID,0.273828,
2009-03-24, 01:01:04,VALID,1004.45,VALID,0,VALID,86.1606,VALID,0,VALID,25.7674,VALID,339,VALID,0.646484,
2009-03-24, 01:02:04,VALID,1004.46,VALID,0,VALID,86.1606,VALID,0,VALID,25.746,VALID,346,VALID,0.643359,
2009-03-24, 01:03:04,VALID,1004.46,VALID,0,VALID,86.2521,VALID,0,VALID,25.8064,VALID,344,VALID,0.522266,
2009-03-24, 01:04:04,VALID,1004.43,VALID,0,VALID,86.1682,VALID,0,VALID,25.7869,VALID,346,VALID,0.405078,
2009-03-24, 01:05:04,VALID,1004.41,VALID,0,VALID,86.1987,VALID,0,VALID,25.7674,VALID,346,VALID,0.378125,
2009-03-24, 01:06:04,VALID,1004.38,VALID,0,VALID,86.4581,VALID,0,VALID,25.748,VALID,346,VALID,0.368359,
2009-03-24, 01:07:04,VALID,1004.36,VALID,0,VALID,86.6488,VALID,0,VALID,25.709,VALID,346,VALID,0.381641,
2009-03-24, 01:08:04,VALID,1004.35,VALID,0,VALID,86.7785,VALID,0,VALID,25.7109,VALID,346,VALID,0.332422,
2009-03-24, 01:09:04,VALID,1004.34,VALID,0,VALID,86.9158,VALID,0,VALID,25.6506,VALID,346,VALID,0.289453,
2009-03-24, 01:10:04,VALID,1004.34,VALID,0,VALID,87.1676,VALID,0,VALID,25.6116,VALID,346,VALID,0,
2009-03-24, 01:11:04,VALID,1004.3,VALID,0,VALID,87.3583,VALID,0,VALID,25.5727,VALID,346,VALID,0.183203,
2009-03-24, 01:12:04,VALID,1004.27,VALID,0,VALID,87.3965,VALID,0,VALID,25.5337,VALID,345,VALID,0.326562,
2009-03-24, 01:13:04,VALID,1004.26,VALID,0,VALID,87.4804,VALID,0,VALID,25.4734,VALID,345,VALID,0.523828,
2009-03-24, 01:14:04,VALID,1004.21,VALID,0,VALID,87.4499,VALID,0,VALID,25.4734,VALID,341,VALID,0.377734,
2009-03-24, 01:15:04,VALID,1004.19,VALID,0,VALID,87.4117,VALID,0,VALID,25.4948,VALID,334,VALID,0.732813,
2009-03-24, 01:16:04,VALID,1004.16,VALID,0,VALID,87.3888,VALID,0,VALID,25.4753,VALID,347,VALID,0.653906,
2009-03-24, 01:17:04,VALID,1004.12,VALID,0,VALID,87.3507,VALID,0,VALID,25.4948,VALID,353,VALID,0.688672,
2009-03-24, 01:18:04,VALID,1004.11,VALID,0,VALID,87.3125,VALID,0,VALID,25.4948,VALID,342,VALID,0.571094,
2009-03-24, 01:19:04,VALID,1004.13,VALID,0,VALID,87.3125,VALID,0,VALID,25.4734,VALID,328,VALID,0.307813,
2009-03-24, 01:20:04,VALID,1004.12,VALID,0,VALID,87.2439,VALID,0,VALID,25.4948,VALID,333,VALID,0.365625,
2009-03-24, 01:21:04,VALID,1004.12,VALID,0,VALID,87.2134,VALID,0,VALID,25.4948,VALID,325,VALID,0.21875,
2009-03-24, 01:22:04,VALID,1004.11,VALID,0,VALID,87.2439,VALID,0,VALID,25.5142,VALID,325,VALID,0.203906,
2009-03-24, 01:23:04,VALID,1004.1,VALID,0,VALID,87.0684,VALID,0,VALID,25.5142,VALID,328,VALID,0.677734,
2009-03-24, 01:24:04,VALID,1004.1,VALID,0,VALID,86.9616,VALID,0,VALID,25.5337,VALID,340,VALID,0.850391,
2009-03-24, 01:25:04,VALID,1004.1,VALID,0,VALID,86.8853,VALID,0,VALID,25.5532,VALID,349,VALID,0.673047,
2009-03-24, 01:26:04,VALID,1004.08,VALID,0,VALID,86.9464,VALID,0,VALID,25.5532,VALID,349,VALID,0.158984,
2009-03-24, 01:27:04,VALID,1004.08,VALID,0,VALID,86.954,VALID,0,VALID,25.5532,VALID,349,VALID,0.126172,
2009-03-24, 01:28:04,VALID,1004.07,VALID,0,VALID,86.8701,VALID,0,VALID,25.5532,VALID,339,VALID,0.726563,
2009-03-24, 01:29:04,VALID,1004.05,VALID,0,VALID,86.7404,VALID,0,VALID,25.5532,VALID,346,VALID,0.757422,
2009-03-24, 01:30:04,VALID,1004.03,VALID,0,VALID,86.7022,VALID,0,VALID,25.5727,VALID,348,VALID,0.850781,
2009-03-24, 01:31:04,VALID,1004.02,VALID,0,VALID,86.6107,VALID,0,VALID,25.5318,VALID,355,VALID,0.665234,
2009-03-24, 01:32:04,VALID,1004,VALID,0,VALID,86.542,VALID,0,VALID,25.5532,VALID,349,VALID,0.764844,
2009-03-24, 01:33:04,VALID,1003.98,VALID,0,VALID,86.5573,VALID,0,VALID,25.5532,VALID,357,VALID,0.361328,
2009-03-24, 01:34:04,VALID,1003.98,VALID,0,VALID,86.4962,VALID,0,VALID,25.5532,VALID,352,VALID,0.584375,
2009-03-24, 01:35:04,VALID,1003.96,VALID,0,VALID,86.5039,VALID,0,VALID,25.5123,VALID,354,VALID,0.393359,
2009-03-24, 01:36:04,VALID,1003.95,VALID,0,VALID,86.5115,VALID,0.100563,VALID,25.5123,VALID,344,VALID,0.569141,
2009-03-24, 01:37:04,VALID,1003.92,VALID,0,VALID,86.4428,VALID,0,VALID,25.4928,VALID,347,VALID,0.963281,
2009-03-24, 01:38:04,VALID,1003.88,VALID,0,VALID,86.4428,VALID,0,VALID,25.4928,VALID,342,VALID,1.29727,
2009-03-24, 01:39:04,VALID,1003.87,VALID,0,VALID,86.4657,VALID,0,VALID,25.5337,VALID,355,VALID,0.761328,
2009-03-24, 01:40:04,VALID,1003.83,VALID,0,VALID,86.5268,VALID,0.100563,VALID,25.4928,VALID,336,VALID,0.678516,
2009-03-24, 01:41:04,VALID,1003.86,VALID,0,VALID,86.6107,VALID,0,VALID,25.4539,VALID,348,VALID,0.376172,
2009-03-24, 01:42:04,VALID,1003.8,VALID,0,VALID,86.7099,VALID,0,VALID,25.4753,VALID,348,VALID,0.5875,
2009-03-24, 01:43:04,VALID,1003.84,VALID,0,VALID,86.687,VALID,0,VALID,25.4344,VALID,349,VALID,0.268359,
2009-03-24, 01:44:04,VALID,1003.84,VALID,0,VALID,86.7175,VALID,0,VALID,25.4539,VALID,290,VALID,0.257422,
2009-03-24, 01:45:04,VALID,1003.85,VALID,0,VALID,86.9235,VALID,0.100563,VALID,25.4539,VALID,290,VALID,0.186719,
2009-03-24, 01:46:04,VALID,1003.84,VALID,0,VALID,86.9387,VALID,0,VALID,25.4558,VALID,290,VALID,0.191797,
2009-03-24, 01:47:04,VALID,1003.84,VALID,0,VALID,86.9006,VALID,0,VALID,25.4149,VALID,327,VALID,0.478125,
2009-03-24, 01:48:04,VALID,1003.84,VALID,0,VALID,86.7785,VALID,0.100563,VALID,25.4558,VALID,345,VALID,0.534766,
2009-03-24, 01:49:04,VALID,1003.83,VALID,0,VALID,86.7404,VALID,0,VALID,25.4558,VALID,357,VALID,0.680469,
2009-03-24, 01:50:04,VALID,1003.84,VALID,0,VALID,86.6565,VALID,0,VALID,25.4539,VALID,226,VALID,0.424609,
2009-03-24, 01:51:04,VALID,1003.82,VALID,0,VALID,86.6336,VALID,0,VALID,25.4753,VALID,232,VALID,0.16875,
2009-03-24, 01:52:04,VALID,1003.84,VALID,0,VALID,86.6717,VALID,0,VALID,25.4753,VALID,253,VALID,0.0992187,
2009-03-24, 01:53:04,VALID,1003.84,VALID,0,VALID,86.5725,VALID,0,VALID,25.4558,VALID,7,VALID,0.650781,
2009-03-24, 01:54:04,VALID,1003.84,VALID,0,VALID,86.5649,VALID,0,VALID,25.4753,VALID,298,VALID,0.514453,
2009-03-24, 01:55:04,VALID,1003.86,VALID,0,VALID,86.5954,VALID,0,VALID,25.4753,VALID,345,VALID,0.539453,
2009-03-24, 01:56:04,VALID,1003.83,VALID,0,VALID,86.6183,VALID,0,VALID,25.4558,VALID,356,VALID,0.458594,
2009-03-24, 01:57:04,VALID,1003.81,VALID,0,VALID,86.6336,VALID,0,VALID,25.4363,VALID,354,VALID,0.687891,
2009-03-24, 01:58:04,VALID,1003.78,VALID,0,VALID,86.6336,VALID,0,VALID,25.4149,VALID,354,VALID,0.962109,
2009-03-24, 01:59:04,VALID,1003.77,VALID,0,VALID,86.7556,VALID,0,VALID,25.4149,VALID,358,VALID,0.831641,
2009-03-24, 02:00:04,VALID,1003.76,VALID,0,VALID,86.8167,VALID,0,VALID,25.4169,VALID,360,VALID,0.444141,
2009-03-24, 02:01:04,VALID,1003.77,VALID,0,VALID,86.8472,VALID,0,VALID,25.3955,VALID,342,VALID,0.825391,
2009-03-24, 02:02:04,VALID,1003.76,VALID,0,VALID,86.9158,VALID,0,VALID,25.3955,VALID,350,VALID,0.596484,
2009-03-24, 02:03:04,VALID,1003.77,VALID,0,VALID,86.954,VALID,0,VALID,25.4169,VALID,356,VALID,0.633203,
2009-03-24, 02:04:04,VALID,1003.72,VALID,0,VALID,86.9769,VALID,0,VALID,25.4149,VALID,358,VALID,0.796875,
2009-03-24, 02:05:04,VALID,1003.67,VALID,0,VALID,86.9387,VALID,0,VALID,25.4149,VALID,356,VALID,1.07539,
2009-03-24, 02:06:04,VALID,1003.66,VALID,0,VALID,86.8395,VALID,0,VALID,25.4948,VALID,348,VALID,1.34336,
2009-03-24, 02:07:04,VALID,1003.64,VALID,0,VALID,86.7251,VALID,0,VALID,25.5142,VALID,350,VALID,1.12656,
2009-03-24, 02:08:04,VALID,1003.64,VALID,0,VALID,86.6488,VALID,0,VALID,25.5337,VALID,351,VALID,0.881641,
2009-03-24, 02:09:04,VALID,1003.63,VALID,0,VALID,86.6946,VALID,0,VALID,25.5532,VALID,334,VALID,0.564844,
2009-03-24, 02:10:04,VALID,1003.66,VALID,0,VALID,86.809,VALID,0,VALID,25.5318,VALID,342,VALID,0.188672,
2009-03-24, 02:11:04,VALID,1003.67,VALID,0,VALID,86.8701,VALID,0,VALID,25.5532,VALID,342,VALID,0.0363281,
2009-03-24, 02:12:04,VALID,1003.66,VALID,0,VALID,86.8777,VALID,0,VALID,25.5104,VALID,353,VALID,0.417969,
2009-03-24, 02:13:04,VALID,1003.61,VALID,0,VALID,86.8395,VALID,0,VALID,25.5532,VALID,11,VALID,0.159375,
2009-03-24, 02:14:04,VALID,1003.62,VALID,0,VALID,86.7938,VALID,0,VALID,25.5921,VALID,337,VALID,0.371484,
2009-03-24, 02:15:04,VALID,1003.6,VALID,0,VALID,86.7022,VALID,0,VALID,25.6116,VALID,336,VALID,0.283594,
2009-03-24, 02:16:04,VALID,1003.61,VALID,0,VALID,86.7022,VALID,0,VALID,25.6116,VALID,336,VALID,0.00585938,
2009-03-24, 02:17:04,VALID,1003.56,VALID,0,VALID,86.6717,VALID,0,VALID,25.5921,VALID,336,VALID,0,
2009-03-24, 02:18:04,VALID,1003.54,VALID,0,VALID,86.6717,VALID,0,VALID,25.6116,VALID,341,VALID,0.389844,
2009-03-24, 02:19:04,VALID,1003.52,VALID,0,VALID,86.7022,VALID,0.100563,VALID,25.633,VALID,342,VALID,0.116016,
2009-03-24, 02:20:04,VALID,1003.52,VALID,0,VALID,86.7022,VALID,0.100563,VALID,25.6116,VALID,307,VALID,0.123047,
2009-03-24, 02:21:04,VALID,1003.54,VALID,0,VALID,86.6793,VALID,0,VALID,25.6311,VALID,286,VALID,0.198437,
2009-03-24, 02:22:04,VALID,1003.54,VALID,0,VALID,86.6336,VALID,0,VALID,25.6311,VALID,302,VALID,0.726563,
2009-03-24, 02:23:04,VALID,1003.53,VALID,0,VALID,86.5496,VALID,0,VALID,25.6311,VALID,280,VALID,0.594531,
2009-03-24, 02:24:04,VALID,1003.54,VALID,0,VALID,86.5344,VALID,0,VALID,25.6506,VALID,280,VALID,0.208203,
2009-03-24, 02:25:04,VALID,1003.52,VALID,0,VALID,86.5344,VALID,0,VALID,25.67,VALID,270,VALID,0.746094,
2009-03-24, 02:26:04,VALID,1003.53,VALID,0,VALID,86.481,VALID,0,VALID,25.67,VALID,281,VALID,0.371484,
2009-03-24, 02:27:04,VALID,1003.56,VALID,0,VALID,86.5191,VALID,0,VALID,25.6895,VALID,323,VALID,0.35,
2009-03-24, 02:28:04,VALID,1003.56,VALID,0,VALID,86.4886,VALID,0,VALID,25.6681,VALID,274,VALID,0.203516,
2009-03-24, 02:29:04,VALID,1003.56,VALID,0,VALID,86.4505,VALID,0,VALID,25.6895,VALID,286,VALID,0.306641,
2009-03-24, 02:30:04,VALID,1003.54,VALID,0,VALID,86.4657,VALID,0,VALID,25.6876,VALID,310,VALID,0.408203,
2009-03-24, 02:31:04,VALID,1003.53,VALID,0,VALID,86.4123,VALID,0,VALID,25.709,VALID,335,VALID,0.669141,
2009-03-24, 02:32:04,VALID,1003.52,VALID,0,VALID,86.4276,VALID,0,VALID,25.709,VALID,343,VALID,0.305078,
2009-03-24, 02:33:04,VALID,1003.52,VALID,0,VALID,86.3208,VALID,0,VALID,25.7071,VALID,1,VALID,0.732031,
2009-03-24, 02:34:04,VALID,1003.51,VALID,0,VALID,86.2064,VALID,0,VALID,25.748,VALID,277,VALID,0.321484,
2009-03-24, 02:35:04,VALID,1003.51,VALID,0,VALID,86.2292,VALID,0,VALID,25.748,VALID,320,VALID,0.141016,
2009-03-24, 02:36:04,VALID,1003.49,VALID,0,VALID,86.275,VALID,0,VALID,25.746,VALID,289,VALID,0.307031,
2009-03-24, 02:37:04,VALID,1003.49,VALID,0,VALID,86.2369,VALID,0,VALID,25.746,VALID,289,VALID,0.130859,
2009-03-24, 02:38:04,VALID,1003.48,VALID,0,VALID,86.2979,VALID,0,VALID,25.748,VALID,334,VALID,0.374219,
2009-03-24, 02:39:04,VALID,1003.45,VALID,0,VALID,86.3666,VALID,0,VALID,25.748,VALID,333,VALID,1.16289,
2009-03-24, 02:40:04,VALID,1003.48,VALID,0,VALID,86.2826,VALID,0,VALID,25.7674,VALID,341,VALID,0.373047,
2009-03-24, 02:41:04,VALID,1003.52,VALID,0,VALID,86.3437,VALID,0,VALID,25.7655,VALID,358,VALID,0.830859,
2009-03-24, 02:42:04,VALID,1003.5,VALID,0,VALID,86.3894,VALID,0,VALID,25.746,VALID,330,VALID,0.183594,
2009-03-24, 02:43:04,VALID,1003.49,VALID,0,VALID,86.5115,VALID,0,VALID,25.748,VALID,341,VALID,0.560547,
2009-03-24, 02:44:04,VALID,1003.48,VALID,0,VALID,86.6183,VALID,0,VALID,25.7674,VALID,346,VALID,0.876172,
2009-03-24, 02:45:04,VALID,1003.44,VALID,0,VALID,86.6031,VALID,0,VALID,25.7655,VALID,355,VALID,1.07852,
2009-03-24, 02:46:04,VALID,1003.43,VALID,0,VALID,86.6259,VALID,0,VALID,25.785,VALID,13,VALID,1.03984,
2009-03-24, 02:47:04,VALID,1003.42,VALID,0,VALID,86.5496,VALID,0,VALID,25.8044,VALID,356,VALID,1.28242,
2009-03-24, 02:48:04,VALID,1003.42,VALID,0,VALID,86.481,VALID,0,VALID,25.8044,VALID,353,VALID,1.16875,
2009-03-24, 02:49:04,VALID,1003.38,VALID,0,VALID,86.3971,VALID,0,VALID,25.8259,VALID,352,VALID,0.88125,
2009-03-24, 02:50:04,VALID,1003.38,VALID,0,VALID,86.4505,VALID,0,VALID,25.785,VALID,354,VALID,0.936719,
2009-03-24, 02:51:04,VALID,1003.37,VALID,0,VALID,86.6259,VALID,0,VALID,25.7869,VALID,6,VALID,1.30508,
2009-03-24, 02:52:04,VALID,1003.38,VALID,0,VALID,86.748,VALID,0,VALID,25.7869,VALID,355,VALID,0.360547,
2009-03-24, 02:53:04,VALID,1003.37,VALID,0,VALID,86.7099,VALID,0,VALID,25.8064,VALID,333,VALID,0.157422,
2009-03-24, 02:54:04,VALID,1003.36,VALID,0,VALID,86.7251,VALID,0,VALID,25.7869,VALID,349,VALID,0.462109,
2009-03-24, 02:55:04,VALID,1003.36,VALID,0,VALID,86.7327,VALID,0,VALID,25.7869,VALID,357,VALID,0.285547,
2009-03-24, 02:56:04,VALID,1003.38,VALID,0,VALID,86.8243,VALID,0,VALID,25.746,VALID,292,VALID,0.401563,
2009-03-24, 02:57:04,VALID,1003.4,VALID,0,VALID,86.8395,VALID,0,VALID,25.7869,VALID,288,VALID,0.385547,
2009-03-24, 02:58:04,VALID,1003.37,VALID,0,VALID,86.809,VALID,0,VALID,25.7655,VALID,273,VALID,0.2875,
2009-03-24, 02:59:04,VALID,1003.36,VALID,0,VALID,86.7709,VALID,0,VALID,25.7869,VALID,273,VALID,0.278906,
2009-03-24, 03:00:04,VALID,1003.36,VALID,0,VALID,86.6183,VALID,0,VALID,25.8064,VALID,292,VALID,0.70625,
2009-03-24, 03:01:04,VALID,1003.37,VALID,0,VALID,86.4734,VALID,0,VALID,25.8453,VALID,284,VALID,0.332812,
2009-03-24, 03:02:04,VALID,1003.31,VALID,0,VALID,86.3971,VALID,0,VALID,25.8648,VALID,284,VALID,0.40625,
2009-03-24, 03:03:04,VALID,1003.31,VALID,0,VALID,86.3437,VALID,0,VALID,25.8843,VALID,285,VALID,0.729297,
2009-03-24, 03:04:04,VALID,1003.32,VALID,0,VALID,86.2674,VALID,0,VALID,25.8629,VALID,274,VALID,0.355078,
2009-03-24, 03:05:04,VALID,1003.32,VALID,0,VALID,86.2292,VALID,0,VALID,25.8823,VALID,275,VALID,0.592188,
2009-03-24, 03:06:04,VALID,1003.28,VALID,0,VALID,86.2064,VALID,0,VALID,25.8823,VALID,276,VALID,0.0109375,
2009-03-24, 03:07:04,VALID,1003.28,VALID,0,VALID,86.2445,VALID,0.100563,VALID,25.9038,VALID,340,VALID,0.499219,
2009-03-24, 03:08:04,VALID,1003.27,VALID,0,VALID,86.3437,VALID,0,VALID,25.8648,VALID,358,VALID,0.702344,
2009-03-24, 03:09:04,VALID,1003.29,VALID,0,VALID,86.4276,VALID,0,VALID,25.8843,VALID,353,VALID,1.06562,
2009-03-24, 03:10:04,VALID,1003.35,VALID,0,VALID,86.4047,VALID,0,VALID,25.9018,VALID,351,VALID,0.703906,
2009-03-24, 03:11:04,VALID,1003.35,VALID,0,VALID,86.275,VALID,0,VALID,25.9018,VALID,300,VALID,0.5125,
2009-03-24, 03:12:04,VALID,1003.35,VALID,0,VALID,86.2521,VALID,0,VALID,25.9038,VALID,312,VALID,0.194922,
2009-03-24, 03:13:04,VALID,1003.35,VALID,0,VALID,86.2369,VALID,0,VALID,25.9038,VALID,306,VALID,0.25625,
2009-03-24, 03:14:04,VALID,1003.33,VALID,0,VALID,86.2064,VALID,0,VALID,25.8823,VALID,303,VALID,0.667188,
2009-03-24, 03:15:04,VALID,1003.33,VALID,0,VALID,86.1072,VALID,0,VALID,25.9018,VALID,311,VALID,0.723828,
2009-03-24, 03:16:04,VALID,1003.33,VALID,0,VALID,85.9699,VALID,0,VALID,25.9622,VALID,310,VALID,0.225391,
2009-03-24, 03:17:04,VALID,1003.33,VALID,0,VALID,85.9012,VALID,0,VALID,25.9602,VALID,289,VALID,1.00898,
2009-03-24, 03:18:04,VALID,1003.35,VALID,0,VALID,85.8554,VALID,0,VALID,26.0012,VALID,297,VALID,0.161328,
2009-03-24, 03:19:04,VALID,1003.33,VALID,0,VALID,85.7715,VALID,0.100563,VALID,26.0012,VALID,285,VALID,1.0832,
2009-03-24, 03:20:04,VALID,1003.32,VALID,0,VALID,85.7028,VALID,0,VALID,26.0012,VALID,292,VALID,0.574609,
2009-03-24, 03:21:04,VALID,1003.34,VALID,0,VALID,85.6494,VALID,0,VALID,26.0401,VALID,266,VALID,0.693359,
2009-03-24, 03:22:04,VALID,1003.32,VALID,0,VALID,85.5426,VALID,0,VALID,26.0401,VALID,302,VALID,0.584375,
2009-03-24, 03:23:04,VALID,1003.33,VALID,0,VALID,85.4969,VALID,0,VALID,26.0187,VALID,285,VALID,0.566406,
2009-03-24, 03:24:04,VALID,1003.32,VALID,0,VALID,85.5503,VALID,0,VALID,26.0596,VALID,288,VALID,0.305859,
2009-03-24, 03:25:04,VALID,1003.3,VALID,0,VALID,85.6189,VALID,0,VALID,26.0187,VALID,347,VALID,0.632031,
2009-03-24, 03:26:04,VALID,1003.29,VALID,0,VALID,85.6571,VALID,0.100563,VALID,26.0206,VALID,271,VALID,0.2375,
2009-03-24, 03:27:04,VALID,1003.29,VALID,0,VALID,85.7562,VALID,0,VALID,26.0206,VALID,277,VALID,0.75625,
2009-03-24, 03:28:04,VALID,1003.28,VALID,0,VALID,85.8173,VALID,0,VALID,25.9992,VALID,360,VALID,0.376172,
2009-03-24, 03:29:04,VALID,1003.3,VALID,0,VALID,85.9241,VALID,0,VALID,25.9797,VALID,284,VALID,0.303906,
2009-03-24, 03:30:04,VALID,1003.29,VALID,0,VALID,85.9317,VALID,0,VALID,26.0012,VALID,280,VALID,1.11641,
2009-03-24, 03:31:04,VALID,1003.29,VALID,0,VALID,85.8096,VALID,0,VALID,26.0012,VALID,280,VALID,0.641016,
2009-03-24, 03:32:04,VALID,1003.3,VALID,0,VALID,85.7944,VALID,0,VALID,26.0206,VALID,290,VALID,1.02031,
2009-03-24, 03:33:04,VALID,1003.31,VALID,0,VALID,85.6647,VALID,0,VALID,26.0206,VALID,289,VALID,0.858203,
2009-03-24, 03:34:04,VALID,1003.32,VALID,0,VALID,85.6189,VALID,0,VALID,26.0187,VALID,294,VALID,1.14375,
2009-03-24, 03:35:04,VALID,1003.3,VALID,0,VALID,85.596,VALID,0,VALID,26.0596,VALID,292,VALID,0.726953,
2009-03-24, 03:36:04,VALID,1003.31,VALID,0,VALID,85.5579,VALID,0,VALID,26.0596,VALID,342,VALID,0.182812,
2009-03-24, 03:37:04,VALID,1003.27,VALID,0,VALID,85.7181,VALID,0,VALID,26.0401,VALID,285,VALID,1.01641,
2009-03-24, 03:38:04,VALID,1003.32,VALID,0,VALID,85.68,VALID,0,VALID,26.0187,VALID,299,VALID,0.814453,
2009-03-24, 03:39:04,VALID,1003.31,VALID,0,VALID,85.6571,VALID,0,VALID,26.0596,VALID,281,VALID,0.164453,
2009-03-24, 03:40:04,VALID,1003.3,VALID,0,VALID,85.7257,VALID,0,VALID,26.0401,VALID,347,VALID,0.700391,
2009-03-24, 03:41:04,VALID,1003.3,VALID,0,VALID,85.7715,VALID,0,VALID,26.0401,VALID,353,VALID,0.935547,
2009-03-24, 03:42:04,VALID,1003.32,VALID,0,VALID,85.7868,VALID,0,VALID,26.0206,VALID,355,VALID,0.8375,
2009-03-24, 03:43:04,VALID,1003.3,VALID,0,VALID,85.8631,VALID,0,VALID,26.0012,VALID,357,VALID,1.12383,